Back to catalog

SL-12 R/B(2)

AliveGEO
NORAD 19931·ROCKET BODY·🇷🇺 Russia

Launched Apr 14, 1989 from Baikonur Cosmodrome

Loading…

TLE

FreshSource: Space-Track

Epoch: Sep 13, 2026, 16:05 UTC

1 19931U 89030D   26256.67057424 -.00000113  00000-0  00000-0 0  9995
2 19931  12.8431 334.8667 0017567 211.9433 159.0422  0.97923599120920

Track SL-12 R/B(2) in real time with AllMySat

Download on the App Store